owner,sensor,date,latitude,longitude,vertical_datum,direction_of_sea_water_velocity,sea_water_speed,upward_sea_water_velocity,qcFlag 
TABS,ioos:station:wmo:42050:1,2006-03-01T00:00:00Z,28.8425,-94.2433,2.0,118.9004815,8.669728946,-99999.0,'11133222,11111222,99999999' 
TABS,ioos:station:wmo:42050:1,2006-03-01T00:30:00Z,28.8425,-94.2433,2.0,113.4795481,9.638008093,-99999.0,'11133222,11111222,99999999' 
TABS,ioos:station:wmo:42050:1,2006-03-01T01:00:00Z,28.8425,-94.2433,2.0,108.4546153,9.192741702,-99999.0,'11133222,11111222,99999999' 
TABS,ioos:station:wmo:42050:1,2006-03-01T01:30:00Z,28.8425,-94.2433,2.0,95.0702557,10.86250432,-99999.0,'11111222,11111222,99999999' 
TABS,ioos:station:wmo:42050:1,2006-03-01T02:00:00Z,28.8425,-94.2433,2.0,90.32660031,12.28019951,-99999.0,'11111222,11111222,99999999' 
TABS,ioos:station:wmo:42050:1,2006-03-01T02:30:00Z,28.8425,-94.2433,2.0,87.35984678,11.07175235,-99999.0,'11111222,11111222,99999999' 
TABS,ioos:station:wmo:42050:1,2006-03-01T03:00:00Z,28.8425,-94.2433,2.0,84.42781523,11.12255816,-99999.0,'11111222,11111222,99999999' 
TABS,ioos:station:wmo:42050:1,2006-03-01T03:30:00Z,28.8425,-94.2433,2.0,73.4420356,15.93061518,-99999.0,'11111222,11111222,99999999' 
TABS,ioos:station:wmo:42050:1,2006-03-01T04:00:00Z,28.8425,-94.2433,2.0,70.31323243,16.3560417,-99999.0,'11111222,11111222,99999999' 
TABS,ioos:station:wmo:42050:1,2006-03-01T04:30:00Z,28.8425,-94.2433,2.0,71.05275095,20.51135295,-99999.0,'11111222,11111222,99999999' 
TABS,ioos:station:wmo:42050:1,2006-03-01T05:00:00Z,28.8425,-94.2433,2.0,73.03022804,20.28315557,-99999.0,'11111222,11111222,99999999' 
TABS,ioos:station:wmo:42050:1,2006-03-01T05:30:00Z,28.8425,-94.2433,2.0,71.20128913,20.41923848,-99999.0,'11111222,11111222,99999999' 
TABS,ioos:station:wmo:42050:1,2006-03-01T06:00:00Z,28.8425,-94.2433,2.0,71.12216269,20.86216911,-99999.0,'11111222,11111222,99999999' 
TABS,ioos:station:wmo:42050:1,2006-03-01T06:30:00Z,28.8425,-94.2433,2.0,72.76306843,21.02425504,-99999.0,'11111222,11111222,99999999' 
TABS,ioos:station:wmo:42050:1,2006-03-01T07:00:00Z,28.8425,-94.2433,2.0,73.70168779,21.62920479,-99999.0,'11111222,11111222,99999999' 
TABS,ioos:station:wmo:42050:1,2006-03-01T07:30:00Z,28.8425,-94.2433,2.0,79.43073465,23.06126189,-99999.0,'11111222,11111222,99999999' 
TABS,ioos:station:wmo:42050:1,2006-03-01T08:00:00Z,28.8425,-94.2433,2.0,81.5017725,20.90957914,-99999.0,'11111222,11111222,99999999' 
TABS,ioos:station:wmo:42050:1,2006-03-01T08:30:00Z,28.8425,-94.2433,2.0,89.22722188,21.50195573,-99999.0,'11111222,11111222,99999999' 
TABS,ioos:station:wmo:42050:1,2006-03-01T09:00:00Z,28.8425,-94.2433,2.0,94.9772277,23.1673585,-99999.0,'11111222,11111222,99999999' 
TABS,ioos:station:wmo:42050:1,2006-03-01T09:30:00Z,28.8425,-94.2433,2.0,103.8838128,22.79600404,-99999.0,'11111222,11111222,99999999' 
TABS,ioos:station:wmo:42050:1,2006-03-01T10:00:00Z,28.8425,-94.2433,2.0,109.0732451,19.58520105,-99999.0,'11111222,11111222,99999999' 
TABS,ioos:station:wmo:42050:1,2006-03-01T10:30:00Z,28.8425,-94.2433,2.0,119.2847684,20.54577572,-99999.0,'11111222,11111222,99999999' 
TABS,ioos:station:wmo:42050:1,2006-03-01T11:00:00Z,28.8425,-94.2433,2.0,126.3592165,21.32084661,-99999.0,'11111222,11111222,99999999' 
TABS,ioos:station:wmo:42050:1,2006-03-01T11:30:00Z,28.8425,-94.2433,2.0,136.5809827,21.27079923,-99999.0,'11111222,11111222,99999999' 
TABS,ioos:station:wmo:42050:1,2006-03-01T12:00:00Z,28.8425,-94.2433,2.0,140.6350386,20.30724994,-99999.0,'11111222,11111222,99999999' 
TABS,ioos:station:wmo:42050:1,2006-03-01T12:30:00Z,28.8425,-94.2433,2.0,144.2594647,20.69802164,-99999.0,'11111222,11111222,99999999' 
TABS,ioos:station:wmo:42050:1,2006-03-01T13:00:00Z,28.8425,-94.2433,2.0,149.3986441,21.41202699,-99999.0,'11111222,11111222,99999999' 
TABS,ioos:station:wmo:42050:1,2006-03-01T13:30:00Z,28.8425,-94.2433,2.0,150.1823221,21.51880341,-99999.0,'11111222,11111222,99999999' 
TABS,ioos:station:wmo:42050:1,2006-03-01T14:00:00Z,28.8425,-94.2433,2.0,153.3107841,20.66131651,-99999.0,'11111222,11111222,99999999' 
TABS,ioos:station:wmo:42050:1,2006-03-01T14:30:00Z,28.8425,-94.2433,2.0,154.8207151,19.41474955,-99999.0,'11111222,11111222,99999999' 
TABS,ioos:station:wmo:42050:1,2006-03-01T15:00:00Z,28.8425,-94.2433,2.0,153.6827649,16.53364146,-99999.0,'11111222,11111222,99999999' 
TABS,ioos:station:wmo:42050:1,2006-03-01T15:30:00Z,28.8425,-94.2433,2.0,154.5843916,13.37437849,-99999.0,'11111222,11111222,99999999' 
TABS,ioos:station:wmo:42050:1,2006-03-01T16:00:00Z,28.8425,-94.2433,2.0,150.3479901,11.46082458,-99999.0,'11111222,11111222,99999999' 
TABS,ioos:station:wmo:42050:1,2006-03-01T16:30:00Z,28.8425,-94.2433,2.0,140.6534964,9.905251133,-99999.0,'11133222,11111222,99999999' 
TABS,ioos:station:wmo:42050:1,2006-03-01T17:00:00Z,28.8425,-94.2433,2.0,136.9862308,9.792241827,-99999.0,'11133222,11111222,99999999' 
TABS,ioos:station:wmo:42050:1,2006-03-01T17:30:00Z,28.8425,-94.2433,2.0,115.2541685,9.188171744,-99999.0,'11133222,11111222,99999999' 
TABS,ioos:station:wmo:42050:1,2006-03-01T18:00:00Z,28.8425,-94.2433,2.0,111.7891315,8.701683745,-99999.0,'11133222,11111222,99999999' 
TABS,ioos:station:wmo:42050:1,2006-03-01T18:30:00Z,28.8425,-94.2433,2.0,77.73768222,10.02880352,-99999.0,'11111222,11111222,99999999' 
TABS,ioos:station:wmo:42050:1,2006-03-01T19:00:00Z,28.8425,-94.2433,2.0,64.46821593,7.192364006,-99999.0,'11133222,11111222,99999999' 
TABS,ioos:station:wmo:42050:1,2006-03-01T19:30:00Z,28.8425,-94.2433,2.0,51.21046731,7.582255601,-99999.0,'11133222,11111222,99999999' 
TABS,ioos:station:wmo:42050:1,2006-03-01T20:00:00Z,28.8425,-94.2433,2.0,51.26757198,8.614551642,-99999.0,'11133222,11111222,99999999' 
TABS,ioos:station:wmo:42050:1,2006-03-01T20:30:00Z,28.8425,-94.2433,2.0,60.05189679,10.83698297,-99999.0,'11111222,11111222,99999999' 
TABS,ioos:station:wmo:42050:1,2006-03-01T21:00:00Z,28.8425,-94.2433,2.0,65.21191139,9.230455027,-99999.0,'11133222,11111222,99999999' 
TABS,ioos:station:wmo:42050:1,2006-03-01T21:30:00Z,28.8425,-94.2433,2.0,66.45627265,11.11529127,-99999.0,'11111222,11111222,99999999' 
TABS,ioos:station:wmo:42050:1,2006-03-01T22:00:00Z,28.8425,-94.2433,2.0,85.03274085,10.04773606,-99999.0,'11111222,11111222,99999999' 
TABS,ioos:station:wmo:42050:1,2006-03-01T22:30:00Z,28.8425,-94.2433,2.0,83.48800741,12.52078272,-99999.0,'11111222,11111222,99999999' 
TABS,ioos:station:wmo:42050:1,2006-03-01T23:00:00Z,28.8425,-94.2433,2.0,110.3794945,9.878319695,-99999.0,'11133222,11111222,99999999' 
TABS,ioos:station:wmo:42050:1,2006-03-01T23:30:00Z,28.8425,-94.2433,2.0,113.1789257,11.50900951,-99999.0,'11111222,11111222,99999999' 
TABS,ioos:station:wmo:42050:1,2006-03-02T00:00:00Z,28.8425,-94.2433,2.0,123.3016374,12.27579733,-99999.0,'11111222,11111222,99999999' 
TABS,ioos:station:wmo:42050:1,2006-03-02T00:30:00Z,28.8425,-94.2433,2.0,133.3119065,14.40294414,-99999.0,'11111222,11111222,99999999' 
TABS,ioos:station:wmo:42050:1,2006-03-02T01:00:00Z,28.8425,-94.2433,2.0,131.58599,18.04911078,-99999.0,'11111222,11111222,99999999' 
TABS,ioos:station:wmo:42050:1,2006-03-02T01:30:00Z,28.8425,-94.2433,2.0,154.8126798,17.48216234,-99999.0,'11111222,11111222,99999999' 
TABS,ioos:station:wmo:42050:1,2006-03-02T02:00:00Z,28.8425,-94.2433,2.0,155.2669154,17.06545048,-99999.0,'11111222,11111222,99999999' 
TABS,ioos:station:wmo:42050:1,2006-03-02T02:30:00Z,28.8425,-94.2433,2.0,161.2759584,14.42333179,-99999.0,'11111222,11111222,99999999' 
TABS,ioos:station:wmo:42050:1,2006-03-02T03:00:00Z,28.8425,-94.2433,2.0,174.6543567,12.02228348,-99999.0,'11111222,11111222,99999999' 
TABS,ioos:station:wmo:42050:1,2006-03-02T03:30:00Z,28.8425,-94.2433,2.0,178.113489,10.02543266,-99999.0,'11111222,11111222,99999999' 
TABS,ioos:station:wmo:42050:1,2006-03-02T04:00:00Z,28.8425,-94.2433,2.0,178.6475683,4.661298102,-99999.0,'11133222,11111222,99999999' 
TABS,ioos:station:wmo:42050:1,2006-03-02T04:30:00Z,28.8425,-94.2433,2.0,190.1328758,2.387236896,-99999.0,'11133222,11111222,99999999' 
TABS,ioos:station:wmo:42050:1,2006-03-02T05:00:00Z,28.8425,-94.2433,2.0,137.4469377,2.484210136,-99999.0,'11133222,11111222,99999999' 
TABS,ioos:station:wmo:42050:1,2006-03-02T05:30:00Z,28.8425,-94.2433,2.0,37.28823085,2.740072992,-99999.0,'11133222,11111222,99999999' 
TABS,ioos:station:wmo:42050:1,2006-03-02T06:00:00Z,28.8425,-94.2433,2.0,92.45964109,5.825366941,-99999.0,'11133222,11111222,99999999' 
TABS,ioos:station:wmo:42050:1,2006-03-02T06:30:00Z,28.8425,-94.2433,2.0,51.78780327,7.598085285,-99999.0,'11133222,11111222,99999999' 
TABS,ioos:station:wmo:42050:1,2006-03-02T07:00:00Z,28.8425,-94.2433,2.0,47.6499137,8.56515032,-99999.0,'11133222,11111222,99999999' 
TABS,ioos:station:wmo:42050:1,2006-03-02T07:30:00Z,28.8425,-94.2433,2.0,53.94894988,10.63708607,-99999.0,'11111222,11111222,99999999' 
TABS,ioos:station:wmo:42050:1,2006-03-02T08:00:00Z,28.8425,-94.2433,2.0,46.76991321,10.07400615,-99999.0,'11111222,11111222,99999999' 
TABS,ioos:station:wmo:42050:1,2006-03-02T08:30:00Z,28.8425,-94.2433,2.0,41.8010508,10.51692446,-99999.0,'11111222,11111222,99999999' 
TABS,ioos:station:wmo:42050:1,2006-03-02T09:00:00Z,28.8425,-94.2433,2.0,45.58649413,11.74565877,-99999.0,'11111222,11111222,99999999' 
TABS,ioos:station:wmo:42050:1,2006-03-02T09:30:00Z,28.8425,-94.2433,2.0,46.39097411,12.5265518,-99999.0,'11111222,11111222,99999999' 
TABS,ioos:station:wmo:42050:1,2006-03-02T10:00:00Z,28.8425,-94.2433,2.0,57.49255159,12.09504031,-99999.0,'11111222,11111222,99999999' 
TABS,ioos:station:wmo:42050:1,2006-03-02T10:30:00Z,28.8425,-94.2433,2.0,67.89750778,12.01279734,-99999.0,'11111222,11111222,99999999' 
TABS,ioos:station:wmo:42050:1,2006-03-02T11:00:00Z,28.8425,-94.2433,2.0,77.02864156,11.09306991,-99999.0,'11111222,11111222,99999999' 
TABS,ioos:station:wmo:42050:1,2006-03-02T11:30:00Z,28.8425,-94.2433,2.0,88.41375675,9.753737745,-99999.0,'11133222,11111222,99999999' 
TABS,ioos:station:wmo:42050:1,2006-03-02T12:00:00Z,28.8425,-94.2433,2.0,104.4775155,14.79996284,-99999.0,'11111222,11111222,99999999' 
TABS,ioos:station:wmo:42050:1,2006-03-02T12:30:00Z,28.8425,-94.2433,2.0,108.9966097,15.48325547,-99999.0,'11111222,11111222,99999999' 
TABS,ioos:station:wmo:42050:1,2006-03-02T13:00:00Z,28.8425,-94.2433,2.0,122.2562549,14.52105024,-99999.0,'11111222,11111222,99999999' 
TABS,ioos:station:wmo:42050:1,2006-03-02T13:30:00Z,28.8425,-94.2433,2.0,120.4913338,16.8503086,-99999.0,'11111222,11111222,99999999' 
TABS,ioos:station:wmo:42050:1,2006-03-02T14:00:00Z,28.8425,-94.2433,2.0,133.0004284,14.79461051,-99999.0,'11111222,11111222,99999999' 
TABS,ioos:station:wmo:42050:1,2006-03-02T14:30:00Z,28.8425,-94.2433,2.0,133.0773766,19.18046141,-99999.0,'11111222,11111222,99999999' 
TABS,ioos:station:wmo:42050:1,2006-03-02T15:00:00Z,28.8425,-94.2433,2.0,138.3017527,17.67873299,-99999.0,'11111222,11111222,99999999' 
TABS,ioos:station:wmo:42050:1,2006-03-02T15:30:00Z,28.8425,-94.2433,2.0,134.9016176,16.48975439,-99999.0,'11111222,11111222,99999999' 
TABS,ioos:station:wmo:42050:1,2006-03-02T16:00:00Z,28.8425,-94.2433,2.0,128.6828279,15.48775323,-99999.0,'11111222,11111222,99999999' 
TABS,ioos:station:wmo:42050:1,2006-03-02T16:30:00Z,28.8425,-94.2433,2.0,124.6512349,13.22591396,-99999.0,'11111222,11111222,99999999' 
TABS,ioos:station:wmo:42050:1,2006-03-02T17:00:00Z,28.8425,-94.2433,2.0,130.2667785,16.53905983,-99999.0,'11111222,11111222,99999999' 
TABS,ioos:station:wmo:42050:1,2006-03-02T17:30:00Z,28.8425,-94.2433,2.0,123.4646629,12.69441216,-99999.0,'11111222,11111222,99999999' 
TABS,ioos:station:wmo:42050:1,2006-03-02T18:00:00Z,28.8425,-94.2433,2.0,125.375804,12.35019838,-99999.0,'11111222,11111222,99999999' 
TABS,ioos:station:wmo:42050:1,2006-03-02T18:30:00Z,28.8425,-94.2433,2.0,114.0645843,10.25095118,-99999.0,'11111222,11111222,99999999' 
TABS,ioos:station:wmo:42050:1,2006-03-02T19:00:00Z,28.8425,-94.2433,2.0,131.0111666,8.640561324,-99999.0,'11133222,11111222,99999999' 
TABS,ioos:station:wmo:42050:1,2006-03-02T19:30:00Z,28.8425,-94.2433,2.0,134.417811,9.744434309,-99999.0,'11133222,11111222,99999999' 
TABS,ioos:station:wmo:42050:1,2006-03-02T20:00:00Z,28.8425,-94.2433,2.0,142.2059349,4.960645119,-99999.0,'11133222,11111222,99999999' 
TABS,ioos:station:wmo:42050:1,2006-03-02T20:30:00Z,28.8425,-94.2433,2.0,143.9589569,6.220651091,-99999.0,'11133222,11111222,99999999' 
TABS,ioos:station:wmo:42050:1,2006-03-02T21:00:00Z,28.8425,-94.2433,2.0,168.7221992,6.954279258,-99999.0,'11133222,11111222,99999999' 
TABS,ioos:station:wmo:42050:1,2006-03-02T21:30:00Z,28.8425,-94.2433,2.0,167.5421932,10.47666455,-99999.0,'11111222,11111222,99999999' 
TABS,ioos:station:wmo:42050:1,2006-03-02T22:00:00Z,28.8425,-94.2433,2.0,194.8118738,10.2092605,-99999.0,'11111222,11111222,99999999' 
TABS,ioos:station:wmo:42050:1,2006-03-02T22:30:00Z,28.8425,-94.2433,2.0,204.1095946,12.63196343,-99999.0,'11111222,11111222,99999999' 
TABS,ioos:station:wmo:42050:1,2006-03-02T23:00:00Z,28.8425,-94.2433,2.0,199.9505215,13.62786117,-99999.0,'11111222,11111222,99999999' 
TABS,ioos:station:wmo:42050:1,2006-03-02T23:30:00Z,28.8425,-94.2433,2.0,202.0575167,17.01543417,-99999.0,'11111222,11111222,99999999' 
TABS,ioos:station:wmo:42050:1,2006-03-03T00:00:00Z,28.8425,-94.2433,2.0,203.6079825,17.07946428,-99999.0,'11111222,11111222,99999999' 
TABS,ioos:station:wmo:42050:1,2006-03-03T00:30:00Z,28.8425,-94.2433,2.0,212.0450043,18.2627079,-99999.0,'11111222,11111222,99999999' 
TABS,ioos:station:wmo:42050:1,2006-03-03T01:00:00Z,28.8425,-94.2433,2.0,215.4855881,21.8603774,-99999.0,'11111222,11111222,99999999' 
TABS,ioos:station:wmo:42050:1,2006-03-03T01:30:00Z,28.8425,-94.2433,2.0,215.8208834,18.79514831,-99999.0,'11111222,11111222,99999999' 
TABS,ioos:station:wmo:42050:1,2006-03-03T02:00:00Z,28.8425,-94.2433,2.0,224.746424,20.7962136,-99999.0,'11111222,11111222,99999999' 
TABS,ioos:station:wmo:42050:1,2006-03-03T02:30:00Z,28.8425,-94.2433,2.0,229.6563152,18.55208075,-99999.0,'11111222,11111222,99999999' 
TABS,ioos:station:wmo:42050:1,2006-03-03T03:00:00Z,28.8425,-94.2433,2.0,237.1473443,17.64135199,-99999.0,'11111222,11111222,99999999' 
TABS,ioos:station:wmo:42050:1,2006-03-03T03:30:00Z,28.8425,-94.2433,2.0,239.292347,20.30735089,-99999.0,'11111222,11111222,99999999' 
TABS,ioos:station:wmo:42050:1,2006-03-03T04:00:00Z,28.8425,-94.2433,2.0,249.8067635,16.80276465,-99999.0,'11111222,11111222,99999999' 
TABS,ioos:station:wmo:42050:1,2006-03-03T04:30:00Z,28.8425,-94.2433,2.0,270.2390094,16.81014575,-99999.0,'11111222,11111222,99999999' 
TABS,ioos:station:wmo:42050:1,2006-03-03T05:00:00Z,28.8425,-94.2433,2.0,275.4970332,17.85208671,-99999.0,'11111222,11111222,99999999' 
TABS,ioos:station:wmo:42050:1,2006-03-03T05:30:00Z,28.8425,-94.2433,2.0,283.722686,17.70536642,-99999.0,'11111222,11111222,99999999' 
TABS,ioos:station:wmo:42050:1,2006-03-03T06:00:00Z,28.8425,-94.2433,2.0,298.4203493,14.64497525,-99999.0,'11111222,11111222,99999999' 
TABS,ioos:station:wmo:42050:1,2006-03-03T06:30:00Z,28.8425,-94.2433,2.0,317.0345517,15.537857,-99999.0,'11111222,11111222,99999999' 
TABS,ioos:station:wmo:42050:1,2006-03-03T07:00:00Z,28.8425,-94.2433,2.0,320.71327,16.97710517,-99999.0,'11111222,11111222,99999999' 
TABS,ioos:station:wmo:42050:1,2006-03-03T07:30:00Z,28.8425,-94.2433,2.0,333.685898,16.35475772,-99999.0,'11111222,11111222,99999999' 
TABS,ioos:station:wmo:42050:1,2006-03-03T08:00:00Z,28.8425,-94.2433,2.0,328.1837103,15.44001295,-99999.0,'11111222,11111222,99999999' 
TABS,ioos:station:wmo:42050:1,2006-03-03T08:30:00Z,28.8425,-94.2433,2.0,336.2294997,15.77856774,-99999.0,'11111222,11111222,99999999' 
TABS,ioos:station:wmo:42050:1,2006-03-03T09:00:00Z,28.8425,-94.2433,2.0,337.031039,14.76027439,-99999.0,'11111222,11111222,99999999' 
TABS,ioos:station:wmo:42050:1,2006-03-03T09:30:00Z,28.8425,-94.2433,2.0,343.7038792,14.5756029,-99999.0,'11111222,11111222,99999999' 
TABS,ioos:station:wmo:42050:1,2006-03-03T10:00:00Z,28.8425,-94.2433,2.0,343.0824228,12.30241033,-99999.0,'11111222,11111222,99999999' 
TABS,ioos:station:wmo:42050:1,2006-03-03T10:30:00Z,28.8425,-94.2433,2.0,354.4618759,11.9156242,-99999.0,'11111222,11111222,99999999' 
TABS,ioos:station:wmo:42050:1,2006-03-03T11:00:00Z,28.8425,-94.2433,2.0,346.3561073,8.86003386,-99999.0,'11133222,11111222,99999999' 
TABS,ioos:station:wmo:42050:1,2006-03-03T11:30:00Z,28.8425,-94.2433,2.0,16.43939794,7.809238119,-99999.0,'11133222,11111222,99999999' 
TABS,ioos:station:wmo:42050:1,2006-03-03T12:00:00Z,28.8425,-94.2433,2.0,4.591372511,6.621246106,-99999.0,'11133222,11111222,99999999' 
TABS,ioos:station:wmo:42050:1,2006-03-03T12:30:00Z,28.8425,-94.2433,2.0,29.56967265,3.242283146,-99999.0,'11133222,11111222,99999999' 
TABS,ioos:station:wmo:42050:1,2006-03-03T13:00:00Z,28.8425,-94.2433,2.0,37.54987358,1.854130524,-99999.0,'11133222,11111222,99999999' 
TABS,ioos:station:wmo:42050:1,2006-03-03T13:30:00Z,28.8425,-94.2433,2.0,71.86004996,4.914244601,-99999.0,'11133222,11111222,99999999' 
TABS,ioos:station:wmo:42050:1,2006-03-03T14:00:00Z,28.8425,-94.2433,2.0,105.7872822,5.476586528,-99999.0,'11133222,11111222,99999999' 
TABS,ioos:station:wmo:42050:1,2006-03-03T14:30:00Z,28.8425,-94.2433,2.0,138.8827843,6.265205503,-99999.0,'11133222,11111222,99999999' 
TABS,ioos:station:wmo:42050:1,2006-03-03T15:00:00Z,28.8425,-94.2433,2.0,165.3368696,6.873870816,-99999.0,'11133222,11111222,99999999' 
TABS,ioos:station:wmo:42050:1,2006-03-03T15:30:00Z,28.8425,-94.2433,2.0,176.8098609,12.57949125,-99999.0,'11111222,11111222,99999999' 
TABS,ioos:station:wmo:42050:1,2006-03-03T16:00:00Z,28.8425,-94.2433,2.0,193.3333995,11.27390349,-99999.0,'11111222,11111222,99999999' 
TABS,ioos:station:wmo:42050:1,2006-03-03T16:30:00Z,28.8425,-94.2433,2.0,205.6299676,15.35041368,-99999.0,'11111222,11111222,99999999' 
TABS,ioos:station:wmo:42050:1,2006-03-03T17:00:00Z,28.8425,-94.2433,2.0,225.5179696,17.19754052,-99999.0,'11111222,11111222,99999999' 
TABS,ioos:station:wmo:42050:1,2006-03-03T17:30:00Z,28.8425,-94.2433,2.0,233.3773548,18.97617717,-99999.0,'11111222,11111222,99999999' 
TABS,ioos:station:wmo:42050:1,2006-03-03T18:00:00Z,28.8425,-94.2433,2.0,241.4957929,21.01765448,-99999.0,'11111222,11111222,99999999' 
TABS,ioos:station:wmo:42050:1,2006-03-03T18:30:00Z,28.8425,-94.2433,2.0,249.9200248,24.35008214,-99999.0,'11111222,11111222,99999999' 
TABS,ioos:station:wmo:42050:1,2006-03-03T19:00:00Z,28.8425,-94.2433,2.0,257.8778458,25.19168514,-99999.0,'11111222,11111222,99999999' 
TABS,ioos:station:wmo:42050:1,2006-03-03T19:30:00Z,28.8425,-94.2433,2.0,261.9754371,26.00460344,-99999.0,'11111222,11111222,99999999' 
TABS,ioos:station:wmo:42050:1,2006-03-03T20:00:00Z,28.8425,-94.2433,2.0,266.4785015,23.93518331,-99999.0,'11111222,11111222,99999999' 
TABS,ioos:station:wmo:42050:1,2006-03-03T20:30:00Z,28.8425,-94.2433,2.0,271.9219331,26.24475757,-99999.0,'11111222,11111222,99999999' 
TABS,ioos:station:wmo:42050:1,2006-03-03T21:00:00Z,28.8425,-94.2433,2.0,279.4263382,25.88955774,-99999.0,'11111222,11111222,99999999' 
TABS,ioos:station:wmo:42050:1,2006-03-03T21:30:00Z,28.8425,-94.2433,2.0,277.8575056,25.82241855,-99999.0,'11111222,11111222,99999999' 
TABS,ioos:station:wmo:42050:1,2006-03-03T22:00:00Z,28.8425,-94.2433,2.0,281.9077852,25.20229355,-99999.0,'11111222,11111222,99999999' 
TABS,ioos:station:wmo:42050:1,2006-03-03T22:30:00Z,28.8425,-94.2433,2.0,279.0017232,25.9495761,-99999.0,'11111222,11111222,99999999' 
TABS,ioos:station:wmo:42050:1,2006-03-03T23:00:00Z,28.8425,-94.2433,2.0,282.2588848,27.12854032,-99999.0,'11111222,11111222,99999999' 
TABS,ioos:station:wmo:42050:1,2006-03-03T23:30:00Z,28.8425,-94.2433,2.0,284.1832508,25.59001758,-99999.0,'11111222,11111222,99999999' 
TABS,ioos:station:wmo:42050:1,2006-03-04T00:00:00Z,28.8425,-94.2433,2.0,283.1336121,23.23779895,-99999.0,'11111222,11111222,99999999' 
TABS,ioos:station:wmo:42050:1,2006-03-04T00:30:00Z,28.8425,-94.2433,2.0,280.4489142,22.82853697,-99999.0,'11111222,11111222,99999999' 
TABS,ioos:station:wmo:42050:1,2006-03-04T01:00:00Z,28.8425,-94.2433,2.0,278.9598977,20.41914053,-99999.0,'11111222,11111222,99999999' 
TABS,ioos:station:wmo:42050:1,2006-03-04T01:30:00Z,28.8425,-94.2433,2.0,279.8578254,20.50268519,-99999.0,'11111222,11111222,99999999' 
TABS,ioos:station:wmo:42050:1,2006-03-04T02:00:00Z,28.8425,-94.2433,2.0,276.8990301,19.1486318,-99999.0,'11111222,11111222,99999999' 
TABS,ioos:station:wmo:42050:1,2006-03-04T02:30:00Z,28.8425,-94.2433,2.0,288.6461754,16.32695011,-99999.0,'11111222,11111222,99999999' 
TABS,ioos:station:wmo:42050:1,2006-03-04T03:00:00Z,28.8425,-94.2433,2.0,291.1001038,16.52812452,-99999.0,'11111222,11111222,99999999' 
TABS,ioos:station:wmo:42050:1,2006-03-04T03:30:00Z,28.8425,-94.2433,2.0,296.3377248,15.75545937,-99999.0,'11111222,11111222,99999999' 
TABS,ioos:station:wmo:42050:1,2006-03-04T04:00:00Z,28.8425,-94.2433,2.0,305.5302277,17.10467772,-99999.0,'11111222,11111222,99999999' 
TABS,ioos:station:wmo:42050:1,2006-03-04T04:30:00Z,28.8425,-94.2433,2.0,310.5864777,12.31188856,-99999.0,'11111222,11111222,99999999' 
TABS,ioos:station:wmo:42050:1,2006-03-04T05:00:00Z,28.8425,-94.2433,2.0,319.7437682,13.33929533,-99999.0,'11111222,11111222,99999999' 
TABS,ioos:station:wmo:42050:1,2006-03-04T05:30:00Z,28.8425,-94.2433,2.0,328.0877158,14.3958501,-99999.0,'11111222,11111222,99999999' 
TABS,ioos:station:wmo:42050:1,2006-03-04T06:00:00Z,28.8425,-94.2433,2.0,338.3348853,12.51404411,-99999.0,'11111222,11111222,99999999' 
TABS,ioos:station:wmo:42050:1,2006-03-04T06:30:00Z,28.8425,-94.2433,2.0,334.7480694,10.14994089,-99999.0,'11111222,11111222,99999999' 
TABS,ioos:station:wmo:42050:1,2006-03-04T07:00:00Z,28.8425,-94.2433,2.0,341.5211292,12.30442603,-99999.0,'11111222,11111222,99999999' 
TABS,ioos:station:wmo:42050:1,2006-03-04T07:30:00Z,28.8425,-94.2433,2.0,342.7996918,12.91773974,-99999.0,'11111222,11111222,99999999' 
TABS,ioos:station:wmo:42050:1,2006-03-04T08:00:00Z,28.8425,-94.2433,2.0,349.9508854,12.03463751,-99999.0,'11111222,11111222,99999999' 
TABS,ioos:station:wmo:42050:1,2006-03-04T08:30:00Z,28.8425,-94.2433,2.0,323.7602787,8.914538687,-99999.0,'11133222,11111222,99999999' 
TABS,ioos:station:wmo:42050:1,2006-03-04T09:00:00Z,28.8425,-94.2433,2.0,316.5370181,7.646574396,-99999.0,'11133222,11111222,99999999' 
TABS,ioos:station:wmo:42050:1,2006-03-04T09:30:00Z,28.8425,-94.2433,2.0,278.8867524,9.321893584,-99999.0,'11133222,11111222,99999999' 
TABS,ioos:station:wmo:42050:1,2006-03-04T10:00:00Z,28.8425,-94.2433,2.0,277.5515112,12.17558623,-99999.0,'11111222,11111222,99999999' 
TABS,ioos:station:wmo:42050:1,2006-03-04T10:30:00Z,28.8425,-94.2433,2.0,276.0720716,15.31591656,-99999.0,'11111222,11111222,99999999' 
TABS,ioos:station:wmo:42050:1,2006-03-04T11:00:00Z,28.8425,-94.2433,2.0,268.9553898,20.30337164,-99999.0,'11111222,11111222,99999999' 
TABS,ioos:station:wmo:42050:1,2006-03-04T11:30:00Z,28.8425,-94.2433,2.0,269.2777403,21.43170082,-99999.0,'11111222,11111222,99999999' 
TABS,ioos:station:wmo:42050:1,2006-03-04T12:00:00Z,28.8425,-94.2433,2.0,272.5547609,22.66251751,-99999.0,'11111222,11111222,99999999' 
TABS,ioos:station:wmo:42050:1,2006-03-04T12:30:00Z,28.8425,-94.2433,2.0,270.7447902,23.86201375,-99999.0,'11111222,11111222,99999999' 
TABS,ioos:station:wmo:42050:1,2006-03-04T13:00:00Z,28.8425,-94.2433,2.0,271.4164791,25.89790918,-99999.0,'11111222,11111222,99999999' 
TABS,ioos:station:wmo:42050:1,2006-03-04T13:30:00Z,28.8425,-94.2433,2.0,272.0063325,24.85523084,-99999.0,'11111222,11111222,99999999' 
TABS,ioos:station:wmo:42050:1,2006-03-04T14:00:00Z,28.8425,-94.2433,2.0,276.066294,25.83464728,-99999.0,'11111222,11111222,99999999' 
TABS,ioos:station:wmo:42050:1,2006-03-04T14:30:00Z,28.8425,-94.2433,2.0,268.8576244,27.09538153,-99999.0,'11111222,11111222,99999999' 
TABS,ioos:station:wmo:42050:1,2006-03-04T15:00:00Z,28.8425,-94.2433,2.0,272.1762606,26.33899011,-99999.0,'11111222,11111222,99999999' 
TABS,ioos:station:wmo:42050:1,2006-03-04T15:30:00Z,28.8425,-94.2433,2.0,279.4868702,27.30338624,-99999.0,'11111222,11111222,99999999' 
TABS,ioos:station:wmo:42050:1,2006-03-04T16:00:00Z,28.8425,-94.2433,2.0,281.38539,29.93911488,-99999.0,'11111222,11111222,99999999' 